Location: Zagreb
(45.8000°N, 16.0000°E)
Time: 14:12:23
(UTC+02:00)

Tiros 1 despin weight - Pass Details

Date: 10 August 2022
Orbit: 590 x 639 km, 48.2° (Epoch: 23 September)

Event Time Altitude Azimuth Distance (km) Brightness Sun altitude
Rises 14:31:36 0° 246° (WSW) 2,842 ? 54.3°
Reaches altitude 10° 14:33:54 10° 245° (WSW) 1,934 ? 54.0°
Maximum altitude 14:38:20 80° 159° (SSE) 608 ? 53.5°
Drops below altitude 10° 14:42:44 10° 73° (ENE) 1,921 ? 53.0°
Sets 14:45:01 0° 72° (ENE) 2,822 ? 52.7°
